Black River Falls, WI

5:02 PM CDT on August 23, 2016 (GMT -0500)
Black River Falls Area

Weather History for KBCK - January, 2012

Change the Weather History Date:

Tuesday, January 10, 2012

  Actual Average (KLSE) Record (KLSE)
Temperature  
Mean Temperature 34 °F 17 °F  
Max Temperature 51 °F 25 °F 53 °F (2012)
Min Temperature 17 °F 9 °F -30 °F (1881)
Degree Days  
Heating Degree Days 31 48  
Month to date heating degree days 476  
Since 1 July heating degree days 3320  
Cooling Degree Days 0 0  
Month to date cooling degree days 0  
Year to date cooling degree days 0  
Moisture  
Dew Point 26 °F    
Average Humidity 78    
Maximum Humidity 100    
Minimum Humidity 47    
Precipitation  
Precipitation 0.00 in 0.04 in 0.59 in (1924)
Month to date precipitation 0.34  
Year to date precipitation 0.34  
Snow  
Snow 0.00 in 0.30 in 6.40 in (1924)
Month to date snowfall 2.9  
Since 1 July snowfall 18.5  
Snow Depth -    
Sea Level Pressure  
Sea Level Pressure 29.86 in    
Wind  
Wind Speed 2 mph (SSW)    
Max Wind Speed 13 mph    
Max Gust Speed 18 mph    
Visibility 10 miles    
Events      
T = Trace of Precipitation, MM = Missing Value Source: NWS Daily Summary

Daily Weather History Graph

Daily Weather History Graph

Search for Another Location

Airport or City:

Trip Planner

Search our weather history database for the weather conditions in past years. The results will help you decide how hot, cold, wet, or windy it might be!

Date:

Astronomy

Jan. 10, 2012 Rise Set
Actual Time 7:37 AM CST 4:43 PM CST
Civil Twilight 7:05 AM CST 5:16 PM CST
Nautical Twilight 6:29 AM CST 5:52 PM CST
Astronomical Twilight 5:54 AM CST 6:27 PM CST
Moon 6:41 PM CST (1/10) 8:11 AM CST (1/10)
Length of Visible Light 10h 11m
Length of Day
9h 05m
Full, 98% of the Moon is Illuminated
Jan 10
Full
Jan 16
Last Quarter
Jan 23
New
Jan 30
First Quarter
Feb 7
Full

Hourly Weather History & Observations

Time (CST) Temp. Windchill Dew Point Humidity Pressure Visibility Wind Dir Wind Speed Gust Speed Precip Events Conditions
12:15 AM 23.0 °F - 21.2 °F 93% 29.96 in 10.0 mi Calm Calm - N/A   Clear
12:35 AM 23.0 °F - 21.2 °F 93% 29.97 in 10.0 mi Calm Calm - N/A   Clear
12:55 AM 23.0 °F - 21.2 °F 93% 29.97 in 10.0 mi Calm Calm - N/A   Clear
1:15 AM 21.2 °F - 21.2 °F 100% 29.96 in 10.0 mi Calm Calm - N/A   Clear
1:35 AM 21.2 °F - 19.4 °F 93% 29.97 in 10.0 mi Calm Calm - N/A   Clear
1:55 AM 21.2 °F - 19.4 °F 93% 29.97 in 10.0 mi Calm Calm - N/A   Clear
2:15 AM 21.2 °F - 19.4 °F 93% 29.97 in 10.0 mi Calm Calm - N/A   Clear
2:35 AM 19.4 °F - 19.4 °F 100% 29.97 in 10.0 mi Calm Calm - N/A   Clear
2:55 AM 19.4 °F - 19.4 °F 100% 29.97 in 10.0 mi Calm Calm - N/A   Clear
3:15 AM 19.4 °F - 17.6 °F 93% 29.97 in 10.0 mi Calm Calm - N/A   Clear
3:35 AM 19.4 °F - 17.6 °F 93% 29.96 in 10.0 mi Calm Calm - N/A   Clear
3:55 AM 19.4 °F - 17.6 °F 93% 29.96 in 10.0 mi Calm Calm - N/A   Clear
4:15 AM 19.4 °F - 17.6 °F 93% 29.96 in 10.0 mi Calm Calm - N/A   Clear
4:35 AM 17.6 °F - 17.6 °F 100% 29.96 in 10.0 mi Calm Calm - N/A   Clear
4:55 AM 17.6 °F - 17.6 °F 100% 29.96 in 10.0 mi Calm Calm - N/A   Clear
5:15 AM 17.6 °F 12.3 °F 15.8 °F 93% 29.95 in 10.0 mi South 3.5 mph - N/A   Clear
5:35 AM 21.2 °F - 19.4 °F 93% 29.95 in 10.0 mi Calm Calm - N/A   Clear
5:55 AM 17.6 °F - 15.8 °F 93% 29.96 in 10.0 mi Calm Calm - N/A   Clear
6:15 AM 19.4 °F - 17.6 °F 93% 29.94 in 10.0 mi Calm Calm - N/A   Clear
6:35 AM 17.6 °F - 15.8 °F 93% 29.94 in 10.0 mi Calm Calm - N/A   Clear
6:55 AM 17.6 °F - 15.8 °F 93% 29.93 in 10.0 mi Calm Calm - N/A   Clear
7:15 AM 17.6 °F - 15.8 °F 93% 29.93 in 10.0 mi Calm Calm - N/A   Clear
7:55 AM 17.6 °F - 14.0 °F 86% 29.92 in 10.0 mi Calm Calm - N/A   Clear
8:15 AM 19.4 °F - 19.4 °F 100% 29.92 in 10.0 mi Calm Calm - N/A   Clear
8:35 AM 21.2 °F - 21.2 °F 100% 29.93 in 7.0 mi Calm Calm - N/A   Clear
8:55 AM 26.6 °F - 26.6 °F 100% 29.93 in 10.0 mi Calm Calm - N/A   Clear
9:15 AM 30.2 °F - 28.4 °F 93% 29.92 in 10.0 mi Calm Calm - N/A   Clear
9:35 AM 32.0 °F - 30.2 °F 93% 29.92 in 10.0 mi Calm Calm - N/A   Clear
9:55 AM 33.8 °F - 32.0 °F 93% 29.91 in 10.0 mi Calm Calm - N/A   Clear
10:15 AM 35.6 °F 30.7 °F 32.0 °F 87% 29.89 in 10.0 mi South 5.8 mph - N/A   Clear
10:35 AM 41.0 °F 38.0 °F 32.0 °F 70% 29.89 in 10.0 mi SSW 4.6 mph - N/A   Clear
10:55 AM 42.8 °F 39.3 °F 32.0 °F 66% 29.89 in 10.0 mi West 5.8 mph - N/A   Clear
11:15 AM 44.6 °F 40.7 °F 32.0 °F 61% 29.87 in 10.0 mi WSW 6.9 mph - N/A   Clear
11:55 AM 48.2 °F - 32.0 °F 54% 29.85 in 10.0 mi SW 8.1 mph - N/A   Clear
12:15 PM 48.2 °F - 32.0 °F 54% 29.84 in 10.0 mi SW 8.1 mph - N/A   Clear
12:35 PM 50.0 °F - 32.0 °F 50% 29.83 in 10.0 mi SW 10.4 mph - N/A   Clear
12:55 PM 50.0 °F - 32.0 °F 50% 29.81 in 10.0 mi SW 12.7 mph 18.4 mph N/A   Clear
1:15 PM 50.0 °F - 32.0 °F 50% 29.81 in 10.0 mi SSW 8.1 mph - N/A   Clear
1:35 PM 50.0 °F - 32.0 °F 50% 29.80 in 10.0 mi SSW 10.4 mph - N/A   Clear
1:55 PM 50.0 °F - 32.0 °F 50% 29.79 in 10.0 mi SW 12.7 mph 16.1 mph N/A   Clear
2:15 PM 51.8 °F - 32.0 °F 47% 29.78 in 10.0 mi SW 8.1 mph - N/A   Clear
2:35 PM 51.8 °F - 32.0 °F 47% 29.77 in 10.0 mi SW 9.2 mph - N/A   Clear
2:55 PM 51.8 °F - 32.0 °F 47% 29.76 in 10.0 mi SW 6.9 mph - N/A   Clear
3:15 PM 51.8 °F - 32.0 °F 47% 29.76 in 10.0 mi SW 6.9 mph - N/A   Clear
3:35 PM 51.8 °F - 32.0 °F 47% 29.76 in 10.0 mi SSW 5.8 mph - N/A   Clear
3:55 PM 51.8 °F - 32.0 °F 47% 29.76 in 10.0 mi SSW 5.8 mph - N/A   Clear
4:15 PM 50.0 °F - 32.0 °F 50% 29.75 in 10.0 mi SSW 4.6 mph - N/A   Clear
4:35 PM 48.2 °F - 32.0 °F 54% 29.75 in 10.0 mi SSW 5.8 mph - N/A   Clear
4:55 PM 46.4 °F 44.3 °F 32.0 °F 57% 29.75 in 10.0 mi SSW 4.6 mph - N/A   Clear
5:15 PM 44.6 °F 42.2 °F 32.0 °F 61% 29.74 in 10.0 mi South 4.6 mph - N/A   Clear
5:35 PM 44.6 °F 42.2 °F 32.0 °F 61% 29.74 in 10.0 mi South 4.6 mph - N/A   Clear
5:55 PM 42.8 °F 41.1 °F 32.0 °F 66% 29.74 in 10.0 mi South 3.5 mph - N/A   Clear
6:15 PM 42.8 °F 40.1 °F 32.0 °F 66% 29.74 in 10.0 mi South 4.6 mph - N/A   Clear
6:35 PM 37.4 °F 34.9 °F 30.2 °F 75% 29.74 in 10.0 mi SSW 3.5 mph - N/A   Clear
6:55 PM 35.6 °F 32.8 °F 30.2 °F 81% 29.73 in 10.0 mi SSW 3.5 mph - N/A   Clear
7:15 PM 33.8 °F 30.8 °F 30.2 °F 87% 29.73 in 10.0 mi South 3.5 mph - N/A   Clear
7:35 PM 32.0 °F - 28.4 °F 87% 29.73 in 10.0 mi Calm Calm - N/A   Clear
7:55 PM 30.2 °F - 28.4 °F 93% 29.73 in 10.0 mi Calm Calm - N/A   Clear
8:15 PM 30.2 °F 25.4 °F 26.6 °F 86% 29.73 in 10.0 mi SSW 4.6 mph - N/A   Clear
8:35 PM 30.2 °F 26.7 °F 28.4 °F 93% 29.72 in 10.0 mi SSE 3.5 mph - N/A   Clear
8:55 PM 30.2 °F - 26.6 °F 86% 29.71 in 10.0 mi Calm Calm - N/A   Clear
9:15 PM 30.2 °F - 28.4 °F 93% 29.71 in 10.0 mi Calm Calm - N/A   Clear
9:35 PM 30.2 °F - 28.4 °F 93% 29.71 in 10.0 mi Calm Calm - N/A   Clear
9:55 PM 28.4 °F - 26.6 °F 93% 29.70 in 10.0 mi Calm Calm - N/A   Clear
10:15 PM 26.6 °F - 26.6 °F 100% 29.69 in 10.0 mi Calm Calm - N/A   Clear
10:35 PM 28.4 °F - 28.4 °F 100% 29.68 in 10.0 mi Calm Calm - N/A   Clear
10:55 PM 28.4 °F - 26.6 °F 93% 29.67 in 10.0 mi Calm Calm - N/A   Clear
11:15 PM 26.6 °F - 24.8 °F 93% 29.66 in 10.0 mi Calm Calm - N/A   Clear
11:35 PM 26.6 °F - 24.8 °F 93% 29.66 in 10.0 mi Calm Calm - N/A   Clear
11:55 PM 26.6 °F - 24.8 °F 93% 29.65 in 10.0 mi Calm Calm - N/A   Clear